• Join FlightAware (Why Join?)
  • Login
  • US Flag 
05:06PM EST


 

Airport Tracker/Info


-or-


 

Live Flight TrackerFlight Track Log ✈ SWA2004 ✈ 19-Apr-2014 ✈ KABQ - KLAX

Flight Track Log - Related Links

Times and Time Zones

All times are in EDT time to prevent confusion due to time zone crossing. See the SWA2004 flight status page for this flight to view local times or setup timezone preferences in your user account.

Time Position Orientation Groundspeed Altitude Reporting Facility
EDT Latitude Longitude Course Direction KTS MPH feet Rate Location/Type
10:01AM 35.0394 -106.5803 163° South 166 191 6,400  Level Albuquerque Center
10:01AM 35.0233 -106.5742 163° South 178 205 7,000 2,329 Climbing Albuquerque Center
10:02AM 34.9658 -106.5864 190° South 235 270 9,700 2,416 Climbing Albuquerque Center
10:02AM 34.9586 -106.5956 226° Southwest 233 268 10,100 2,182 Climbing Albuquerque Center
10:03AM 34.9522 -106.6675 264° West 307 353 11,700 2,361 Climbing Albuquerque Center
10:03AM 34.9547 -106.6928 277° West 303 349 12,500 2,964 Climbing Albuquerque Center
10:04AM 34.9567 -106.8081 271° West 334 384 15,800 3,541 Climbing Albuquerque Center
10:05AM 34.9594 -106.9444 271° West 349 402 19,700 3,590 Climbing Albuquerque Center
10:06AM 34.9608 -107.0706 271° West 368 423 23,100 2,951 Climbing Albuquerque Center
10:07AM 34.9619 -107.2050 271° West 391 450 25,700 2,557 Climbing Albuquerque Center
10:08AM 34.9631 -107.3461 271° West 415 478 28,300 2,557 Climbing Albuquerque Center
10:10AM 34.9647 -107.5017 271° West 426 490 30,900 1,623 Climbing Albuquerque Center
10:11AM 34.9664 -107.6267 271° West 440 506 31,600 1,525 Climbing Albuquerque Center
10:12AM 34.9667 -107.7728 270° West 437 503 34,000 2,146 Climbing Albuquerque Center
10:13AM 34.9661 -107.9500 270° West 435 501 36,000 2,049 Climbing Albuquerque Center
10:14AM 34.9669 -108.1006 270° West 442 509 38,200 1,967 Climbing Albuquerque Center
10:15AM 34.9572 -108.2317 265° West 431 496 40,000 885 Climbing Albuquerque Center
10:16AM 34.9439 -108.3889 264° West 418 481 40,000  Level Albuquerque Center
10:17AM 34.9339 -108.5233 265° West 418 481 40,000  Level Albuquerque Center
10:18AM 34.9228 -108.6597 264° West 418 481 40,000  Level Albuquerque Center
10:19AM 34.9092 -108.8181 264° West 418 481 40,000  Level Albuquerque Center
10:20AM 34.8972 -108.9539 264° West 419 482 40,000  Level Albuquerque Center
10:21AM 34.8833 -109.1150 264° West 421 484 40,000  Level Albuquerque Center
10:22AM 34.8714 -109.2525 264° West 423 487 40,000  Level Albuquerque Center
10:23AM 34.8589 -109.3914 264° West 424 488 40,000  Level Albuquerque Center
10:24AM 34.8444 -109.5556 264° West 429 494 40,000  Level Albuquerque Center
10:25AM 34.8308 -109.6947 263° West 431 496 40,000  Level Albuquerque Center
10:26AM 34.8186 -109.8353 264° West 432 497 40,000  Level Albuquerque Center
10:27AM 34.8028 -109.9958 263° West 431 496 40,000  Level Albuquerque Center
10:28AM 34.7908 -110.1372 264° West 434 499 40,000  Level Albuquerque Center
10:29AM 34.7783 -110.3019 265° West 437 503 40,000  Level Albuquerque Center
10:30AM 34.7644 -110.4394 263° West 435 501 40,000  Level Albuquerque Center
10:31AM 34.7481 -110.5808 262° West 435 501 40,000  Level Albuquerque Center
10:32AM 34.7300 -110.7383 262° West 438 504 40,000  Level Albuquerque Center
10:33AM 34.7119 -110.8881 262° West 447 514 40,000  Level Albuquerque Center
10:35AM 34.6825 -111.1814 263° West 443 510 40,000  Level Albuquerque Center
10:36AM 34.6669 -111.3292 263° West 443 510 40,000  Level Albuquerque Center
10:37AM 34.6508 -111.4750 262° West 443 510 40,000  Level Albuquerque Center
10:38AM 34.6325 -111.6517 263° West 442 509 40,000  Level Albuquerque Center
10:39AM 34.6167 -111.7967 262° West 442 509 40,000  Level Albuquerque Center
10:40AM 34.5983 -111.9428 261° West 441 507 40,000  Level Albuquerque Center
10:41AM 34.5828 -112.0894 263° West 441 507 40,000  Level Albuquerque Center
10:42AM 34.5667 -112.2386 263° West 442 509 40,000  Level Albuquerque Center
10:43AM 34.5500 -112.3900 262° West 443 510 40,000  Level Albuquerque Center
10:44AM 34.5328 -112.5397 262° West 444 511 40,000  Level Albuquerque Center
10:45AM 34.5114 -112.7214 262° West 449 517 40,000  Level Albuquerque Center
10:46AM 34.4942 -112.8714 262° West 449 517 40,000  Level Albuquerque Center
10:48AM 34.4569 -113.1753 262° West 454 522 40,000  Level Albuquerque Center
10:49AM 34.4383 -113.3250 261° West 454 522 40,000  Level Albuquerque Center
10:50AM 34.4200 -113.4669 261° West 453 521 40,000  Level Albuquerque Center
10:51AM 34.3983 -113.6461 262° West 448 516 40,000  Level Albuquerque Center
10:52AM 34.3806 -113.7936 262° West 447 514 40,000  Level Albuquerque Center
10:53AM 34.3617 -113.9428 261° West 447 514 40,000  Level Albuquerque Center
10:55AM 34.3458 -114.0931 263° West 447 514 40,000  Level Albuquerque Center
10:56AM 34.3283 -114.2422 262° West 447 514 40,000  Level Albuquerque Center
10:57AM 34.3083 -114.3942 261° West 449 517 40,000 -149 Level Los Angeles Center
10:58AM 34.2889 -114.5425 261° West 449 517 39,700 -634 Descending Los Angeles Center
10:59AM 34.2736 -114.6919 263° West 449 517 38,700 -976 Descending Los Angeles Center
11:00AM 34.2556 -114.8433 262° West 451 519 37,700 -919 Descending Los Angeles Center
11:01AM 34.2364 -114.9919 261° West 451 519 36,800 -1,024 Descending Los Angeles Center
11:02AM 34.2125 -115.1731 261° West 451 519 35,600 -1,024 Descending Los Angeles Center
11:03AM 34.1942 -115.3236 262° West 451 519 34,700 -927 Descending Los Angeles Center
11:04AM 34.1753 -115.4761 262° West 455 524 33,700 -976 Descending Los Angeles Center
11:05AM 34.1561 -115.6306 262° West 460 529 32,700 -927 Descending Los Angeles Center
11:06AM 34.1353 -115.7847 261° West 462 532 31,800 -927 Descending Los Angeles Center
11:07AM 34.1156 -115.9406 261° West 466 536 30,800 -968 Descending Los Angeles Center
11:08AM 34.0944 -116.0942 261° West 466 536 29,800 -1,073 Descending Los Angeles Center
11:09AM 34.0700 -116.2789 261° West 466 536 28,600 -1,073 Descending Los Angeles Center
11:10AM 34.0492 -116.4292 261° West 462 532 27,600 -976 Descending Los Angeles Center
11:11AM 34.0286 -116.5756 260° West 452 520 26,600 -1,610 Descending Los Angeles Center
11:12AM 34.0094 -116.7217 261° West 446 513 24,300 -2,516 Descending Los Angeles Center
11:13AM 33.9900 -116.8614 261° West 432 497 21,400 -2,922 Descending Los Angeles Center
11:14AM 33.9667 -117.0000 259° West 400 460 18,700 -2,336 Descending Southern California TRACON
11:15AM 33.9500 -117.1167 260° West 383 441 17,000 -1,438 Descending Southern California TRACON
11:16AM 33.9500 -117.2333 270° West 327 376 15,800 -1,252 Descending Southern California TRACON
11:17AM 33.9333 -117.3333 259° West 316 364 14,600 -1,200 Descending Southern California TRACON
11:18AM 33.9500 -117.4333 281° West 310 357 13,400 -1,370 Descending Southern California TRACON
11:19AM 33.9833 -117.5333 292° West 299 344 11,700 -1,537 Descending Southern California TRACON
11:20AM 34.0167 -117.6333 292° West 353 406 10,300 -1,000 Descending Southern California TRACON
11:21AM 34.0167 -117.7167 270° West 274 315 9,700 -950 Descending Southern California TRACON
11:22AM 34.0167 -117.8167 270° West 260 299 8,400 -1,200 Descending Southern California TRACON
11:23AM 34.0000 -117.9000 256° West 249 287 7,300 -1,050 Descending Southern California TRACON
11:24AM 34.0000 -117.9833 270° West 249 287 6,300 -905 Descending Southern California TRACON
11:25AM 33.9833 -118.0667 256° West 233 268 5,400 -843 Descending Southern California TRACON
11:26AM 33.9833 -118.1333 270° West 208 239 4,600 -991 Descending Southern California TRACON
11:27AM 33.9667 -118.2000 253° West 194 223 3,500 -950 Descending Southern California TRACON
11:28AM 33.9667 -118.2500 270° West 147 169 2,700 -762 Descending Southern California TRACON
11:29AM 33.9667 -118.3000 270° West 126 145 1,900 -700 Descending Southern California TRACON
11:30AM 33.9667 -118.3333 270° West 127 146 1,300 -698 Descending Southern California TRACON
11:30AM 33.9578 -118.3556 244° Southwest 129 148 900 -638 Descending Los Angeles Center
11:31AM 33.9533 -118.3967 263° West 128 147 300 -581 Descending Los Angeles Center
11:33AM 33.9333 -118.4000 270° West  Level FlightAware Approximate
11:40AM 33.9425 -118.4081 270° West  Level Estimated
11:41AM 33.9425 -118.4081 270° West  Level Estimated